DATE;AVG_WIND_SPEED;MAX_WIND_SPEED;AVG_HUMIDITY;MAX_HUMIDITY;MIN_HUMIDITY;AVG_AIR_PRESSURE;MAX_AIR_PRESSURE;MIN_AIR_PRESSURE;LENGHT_OF_DAY
05.10.2007;0,20 km/h (0 Bft);0,30 km/h (0 Bft);81.40;82,00;81,00 %;1021.64;1021,80;1021,40 hPa;11:24:15
06.10.2007;2,16 km/h (1 Bft);8,90 km/h (2 Bft);78.94;89,00;63,00 %;1021.01;1021,90;1019,90 hPa;11:20:26
07.10.2007;0,31 km/h (0 Bft);2,60 km/h (1 Bft);81.16;90,00;65,00 %;1019.47;1021,80;1017,80 hPa;11:16:38
08.10.2007;0,72 km/h (0 Bft);5,30 km/h (1 Bft);81.56;90,00;66,00 %;1019.97;1022,80;1017,70 hPa;11:12:49
09.10.2007;0,25 km/h (0 Bft);1,90 km/h (1 Bft);80.30;90,00;62,00 %;1021.92;1023,80;1020,40 hPa;11:09:01
10.10.2007;0,64 km/h (0 Bft);4,50 km/h (1 Bft);79.76;90,00;62,00 %;1020.68;1023,80;1018,90 hPa;11:05:14
11.10.2007;0,24 km/h (0 Bft);2,40 km/h (1 Bft);82.80;90,00;69,00 %;1023.68;1026,60;1020,40 hPa;11:01:26
12.10.2007;1,48 km/h (0 Bft);9,20 km/h (2 Bft);86.21;92,00;80,00 %;1019.09;1021,10;1017,90 hPa;10:57:39
13.10.2007;1,01 km/h (0 Bft);5,50 km/h (1 Bft);75.84;89,00;53,00 %;1023.38;1025,10;1021,00 hPa;10:53:53
14.10.2007;0,64 km/h (0 Bft);3,90 km/h (1 Bft);72.12;86,00;50,00 %;1021.93;1024,60;1018,80 hPa;10:50:06
15.10.2007;1,06 km/h (0 Bft);6,10 km/h (2 Bft);75.02;88,00;58,00 %;1016.07;1018,80;1014,70 hPa;10:46:21
16.10.2007;1,39 km/h (0 Bft);5,60 km/h (1 Bft);79.20;93,00;61,00 %;1016.14;1018,30;1014,60 hPa;10:42:36
17.10.2007;2,28 km/h (1 Bft);7,70 km/h (2 Bft);83.22;91,00;68,00 %;1013.24;1016,10;1010,80 hPa;10:38:51
18.10.2007;2,20 km/h (1 Bft);11,30 km/h (2 Bft);80.34;88,00;65,00 %;1021.18;1027,20;1014,70 hPa;10:35:07
19.10.2007;1,51 km/h (0 Bft);9,00 km/h (2 Bft);80.97;90,00;63,00 %;1026.80;1028,60;1025,50 hPa;10:31:23
20.10.2007;0,97 km/h (0 Bft);6,00 km/h (2 Bft);74.82;89,00;58,00 %;1030.68;1033,10;1028,60 hPa;10:27:41
21.10.2007;0,71 km/h (0 Bft);8,00 km/h (2 Bft);86.77;90,00;82,00 %;1024.55;1029,80;1021,60 hPa;10:23:58
22.10.2007;3,34 km/h (1 Bft);11,40 km/h (2 Bft);73.58;89,00;52,00 %;1024.54;1026,50;1023,60 hPa;10:20:17
23.10.2007;6,44 km/h (2 Bft);14,50 km/h (3 Bft);69.63;77,00;59,00 %;1021.87;1023,70;1020,70 hPa;10:16:37
24.10.2007;4,73 km/h (1 Bft);8,70 km/h (2 Bft);80.59;85,00;76,00 %;1020.83;1022,40;1019,00 hPa;10:12:57
25.10.2007;4,30 km/h (1 Bft);10,30 km/h (2 Bft);82.45;86,00;77,00 %;1020.13;1021,60;1019,40 hPa;10:09:18
26.10.2007;2,97 km/h (1 Bft);7,90 km/h (2 Bft);82.77;87,00;80,00 %;1018.79;1020,60;1017,50 hPa;10:05:41
27.10.2007;0,36 km/h (0 Bft);3,40 km/h (1 Bft);86.12;88,00;82,00 %;1024.22;1026,40;1020,50 hPa;10:02:04
28.10.2007;1,82 km/h (1 Bft);6,30 km/h (2 Bft);81.35;89,00;66,00 %;1020.30;1024,30;1016,10 hPa;09:58:28
29.10.2007;2,01 km/h (1 Bft);6,80 km/h (2 Bft);83.77;89,00;75,00 %;1010.56;1016,40;1006,80 hPa;09:54:54
30.10.2007;0,63 km/h (0 Bft);5,60 km/h (1 Bft);85.23;91,00;71,00 %;1012.65;1021,40;1005,70 hPa;09:51:21
31.10.2007;0,40 km/h (0 Bft);3,40 km/h (1 Bft);86.38;93,00;75,00 %;1025.55;1028,80;1021,40 hPa;09:47:49
01.11.2007;0,21 km/h (0 Bft);1,40 km/h (1 Bft);89.28;92,00;86,00 %;1028.13;1028,90;1027,30 hPa;09:44:18
02.11.2007;0,30 km/h (0 Bft);1,80 km/h (1 Bft);93.19;96,00;89,00 %;1028.10;1029,20;1026,90 hPa;09:40:49
03.11.2007;0,91 km/h (0 Bft);7,40 km/h (2 Bft);93.44;96,00;86,00 %;1023.76;1028,10;1020,80 hPa;09:37:22
04.11.2007;0,53 km/h (0 Bft);4,50 km/h (1 Bft);82.70;91,00;68,00 %;1022.41;1025,30;1020,60 hPa;09:33:56
05.11.2007;1,86 km/h (1 Bft);7,60 km/h (2 Bft);75.95;91,00;56,00 %;1023.23;1025,80;1016,60 hPa;09:30:32
06.11.2007;3,92 km/h (1 Bft);12,70 km/h (3 Bft);84.05;94,00;68,00 %;1018.33;1023,80;1014,50 hPa;09:27:09
07.11.2007;7,68 km/h (2 Bft);15,40 km/h (3 Bft);87.22;94,00;78,00 %;1015.75;1023,80;1011,60 hPa;09:23:49
08.11.2007;6,31 km/h (2 Bft);12,60 km/h (3 Bft);87.81;93,00;80,00 %;1010.69;1015,00;999,80 hPa;09:20:30
09.11.2007;9,39 km/h (2 Bft);19,60 km/h (3 Bft);88.24;93,00;79,00 %;1006.08;1013,00;998,60 hPa;09:17:13
10.11.2007;4,61 km/h (1 Bft);13,00 km/h (3 Bft);92.42;96,00;89,00 %;1008.13;1012,00;1004,60 hPa;09:13:59
11.11.2007;4,93 km/h (1 Bft);19,00 km/h (3 Bft);93.44;97,00;84,00 %;1002.39;1007,80;996,40 hPa;09:10:47
12.11.2007;4,89 km/h (1 Bft);15,80 km/h (3 Bft);92.22;96,00;74,00 %;1010.13;1012,00;1007,60 hPa;09:07:37
13.11.2007;4,84 km/h (1 Bft);14,00 km/h (3 Bft);90.35;95,00;75,00 %;1006.06;1011,60;996,90 hPa;09:04:29
14.11.2007;3,26 km/h (1 Bft);5,80 km/h (2 Bft);93.18;96,00;87,00 %;1004.95;1012,60;997,00 hPa;09:01:25
15.11.2007;2,95 km/h (1 Bft);10,60 km/h (2 Bft);91.20;95,00;83,00 %;1018.50;1023,10;1012,40 hPa;08:58:23
16.11.2007;0,49 km/h (0 Bft);2,40 km/h (1 Bft);93.89;96,00;88,00 %;1023.69;1024,90;1022,00 hPa;08:55:23
17.11.2007;0,19 km/h (0 Bft);1,00 km/h (0 Bft);94.14;96,00;91,00 %;1021.85;1024,80;1018,90 hPa;08:52:27
18.11.2007;0,42 km/h (0 Bft);3,70 km/h (1 Bft);92.65;96,00;87,00 %;1011.67;1018,90;1005,90 hPa;08:49:33
19.11.2007;1,46 km/h (0 Bft);5,60 km/h (1 Bft);86.35;93,00;80,00 %;1007.42;1011,80;1004,20 hPa;08:46:43
20.11.2007;0,66 km/h (0 Bft);3,70 km/h (1 Bft);86.78;93,00;74,00 %;1010.43;1012,00;1008,60 hPa;08:43:56
21.11.2007;1,60 km/h (1 Bft);5,00 km/h (1 Bft);83.20;89,00;73,00 %;1007.10;1009,20;1004,50 hPa;08:41:13
22.11.2007;0,62 km/h (0 Bft);4,20 km/h (1 Bft);86.25;91,00;81,00 %;1005.78;1008,90;1004,40 hPa;08:38:33
23.11.2007;0,53 km/h (0 Bft);6,10 km/h (2 Bft);94.67;97,00;91,00 %;1009.68;1018,20;1005,30 hPa;08:35:56
24.11.2007;0,86 km/h (0 Bft);5,00 km/h (1 Bft);93.99;97,00;86,00 %;1019.22;1021,60;1015,40 hPa;08:33:24
25.11.2007;5,23 km/h (1 Bft);15,00 km/h (3 Bft);91.05;94,00;86,00 %;1011.87;1015,40;1010,10 hPa;08:30:55
26.11.2007;6,63 km/h (2 Bft);17,90 km/h (3 Bft);91.13;96,00;80,00 %;1017.30;1020,60;1013,10 hPa;08:28:30
27.11.2007;2,37 km/h (1 Bft);8,50 km/h (2 Bft);95.32;96,00;92,00 %;1022.66;1024,80;1020,20 hPa;08:26:10
28.11.2007;0,37 km/h (0 Bft);3,40 km/h (1 Bft);96.47;97,00;95,00 %;1019.06;1024,10;1012,10 hPa;08:23:54
29.11.2007;3,40 km/h (1 Bft);6,60 km/h (2 Bft);94.38;97,00;92,00 %;1006.85;1012,20;1003,60 hPa;08:21:42
30.11.2007;4,06 km/h (1 Bft);10,10 km/h (2 Bft);93.56;97,00;91,00 %;1005.96;1008,00;1003,40 hPa;08:19:35
01.12.2007;5,39 km/h (2 Bft);10,60 km/h (2 Bft);90.26;93,00;84,00 %;1002.71;1004,90;1000,30 hPa;08:17:32
02.12.2007;11,06 km/h (2 Bft);17,70 km/h (3 Bft);87.38;93,00;83,00 %;995.88;1003,90;982,40 hPa;08:15:34
03.12.2007;8,77 km/h (2 Bft);20,60 km/h (4 Bft);84.58;92,00;79,00 %;992.07;998,80;980,60 hPa;08:13:41
04.12.2007;3,43 km/h (1 Bft);12,40 km/h (3 Bft);87.71;95,00;78,00 %;1009.08;1016,70;997,90 hPa;08:11:54
05.12.2007;5,99 km/h (2 Bft);11,10 km/h (2 Bft);90.14;95,00;83,00 %;1013.68;1015,80;1010,40 hPa;08:10:11
06.12.2007;7,96 km/h (2 Bft);11,30 km/h (2 Bft);88.37;93,00;78,00 %;1008.43;1013,40;1001,60 hPa;08:08:34
07.12.2007;12,11 km/h (2 Bft);36,00 km/h (5 Bft);81.51;93,00;63,00 %;994.93;1001,60;990,10 hPa;08:07:02
08.12.2007;5,59 km/h (1 Bft);10,30 km/h (2 Bft);80.21;87,00;74,00 %;1001.69;1006,30;991,60 hPa;08:05:35
09.12.2007;5,61 km/h (1 Bft);10,80 km/h (2 Bft);87.16;92,00;81,00 %;987.79;991,60;985,80 hPa;08:04:14
10.12.2007;3,39 km/h (1 Bft);9,20 km/h (2 Bft);90.64;95,00;85,00 %;993.99;1005,80;986,60 hPa;08:02:59
11.12.2007;2,19 km/h (1 Bft);5,10 km/h (1 Bft);93.01;95,00;89,00 %;1015.06;1023,80;1005,70 hPa;08:01:49
12.12.2007;3,06 km/h (1 Bft);6,60 km/h (2 Bft);88.81;94,00;82,00 %;1029.73;1034,60;1023,80 hPa;08:00:46
13.12.2007;3,50 km/h (1 Bft);8,00 km/h (2 Bft);85.98;94,00;72,00 %;1036.07;1037,50;1034,10 hPa;07:59:48
14.12.2007;3,48 km/h (1 Bft);9,50 km/h (2 Bft);74.15;81,00;69,00 %;1034.73;1036,40;1033,30 hPa;07:58:56
15.12.2007;3,71 km/h (1 Bft);11,90 km/h (2 Bft);79.88;91,00;69,00 %;1032.43;1033,70;1031,60 hPa;07:58:11
16.12.2007;3,91 km/h (1 Bft);9,70 km/h (2 Bft);85.29;91,00;76,00 %;1033.03;1033,90;1032,40 hPa;07:57:31
17.12.2007;5,55 km/h (1 Bft);14,00 km/h (3 Bft);78.78;87,00;69,00 %;1032.10;1033,40;1030,80 hPa;07:56:58
18.12.2007;3,11 km/h (1 Bft);9,00 km/h (2 Bft);85.20;90,00;74,00 %;1032.48;1033,60;1031,60 hPa;07:56:31
19.12.2007;0,76 km/h (0 Bft);5,30 km/h (1 Bft);91.81;94,00;88,00 %;1034.74;1036,40;1033,40 hPa;07:56:10
20.12.2007;0,50 km/h (0 Bft);3,20 km/h (1 Bft);92.06;94,00;87,00 %;1032.02;1035,00;1028,60 hPa;07:55:56
21.12.2007;0,04 km/h (0 Bft);1,60 km/h (1 Bft);92.17;94,00;89,00 %;1026.06;1028,60;1023,40 hPa;07:55:48
22.12.2007;1,07 km/h (0 Bft);3,90 km/h (1 Bft);91.91;93,00;90,00 %;1023.19;1024,50;1022,20 hPa;07:55:46
23.12.2007;2,38 km/h (1 Bft);4,70 km/h (1 Bft);91.69;93,00;90,00 %;1024.08;1025,20;1023,40 hPa;07:55:50
24.12.2007;2,04 km/h (1 Bft);5,60 km/h (1 Bft);93.46;95,00;92,00 %;1024.98;1026,30;1023,60 hPa;07:56:01
25.12.2007;2,81 km/h (1 Bft);6,10 km/h (2 Bft);91.90;95,00;87,00 %;1020.60;1025,30;1016,80 hPa;07:56:18
26.12.2007;1,60 km/h (1 Bft);4,50 km/h (1 Bft);91.88;94,00;88,00 %;1021.82;1028,20;1016,20 hPa;07:56:42
27.12.2007;2,76 km/h (1 Bft);7,40 km/h (2 Bft);92.83;95,00;90,00 %;1029.12;1030,80;1027,90 hPa;07:57:12
28.12.2007;2,62 km/h (1 Bft);7,20 km/h (2 Bft);92.52;96,00;89,00 %;1025.79;1030,30;1020,60 hPa;07:57:48
29.12.2007;4,02 km/h (1 Bft);9,80 km/h (2 Bft);91.94;95,00;87,00 %;1015.33;1020,60;1013,00 hPa;07:58:30
30.12.2007;2,93 km/h (1 Bft);9,20 km/h (2 Bft);91.82;95,00;89,00 %;1015.81;1021,40;1012,90 hPa;07:59:18
31.12.2007;0,38 km/h (0 Bft);4,20 km/h (1 Bft);93.94;97,00;89,00 %;1023.74;1025,20;1020,80 hPa;08:00:13
01.01.2008;0,35 km/h (0 Bft);2,60 km/h (1 Bft);93.80;96,00;91,00 %;1022.08;1024,60;1020,10 hPa;08:01:13
02.01.2008;3,48 km/h (1 Bft);10,60 km/h (2 Bft);84.59;95,00;67,00 %;1017.18;1020,30;1012,10 hPa;08:02:20
03.01.2008;4,26 km/h (1 Bft);8,90 km/h (2 Bft);70.28;80,00;64,00 %;1007.06;1012,10;1005,20 hPa;08:03:32
04.01.2008;0,82 km/h (0 Bft);6,90 km/h (2 Bft);82.00;90,00;69,00 %;1008.55;1010,20;1006,60 hPa;08:04:50
05.01.2008;4,16 km/h (1 Bft);8,20 km/h (2 Bft);85.97;94,00;76,00 %;1004.17;1008,40;1001,10 hPa;08:06:14
06.01.2008;1,96 km/h (1 Bft);12,60 km/h (3 Bft);90.56;95,00;73,00 %;1005.75;1013,40;998,80 hPa;08:07:43
07.01.2008;5,59 km/h (1 Bft);20,90 km/h (4 Bft);88.39;96,00;69,00 %;1008.30;1012,60;1003,20 hPa;08:09:18
08.01.2008;3,30 km/h (1 Bft);10,30 km/h (2 Bft);87.33;94,00;78,00 %;1016.68;1019,40;1012,60 hPa;08:10:59
09.01.2008;1,94 km/h (1 Bft);6,90 km/h (2 Bft);89.93;96,00;73,00 %;1011.72;1014,90;1010,00 hPa;08:12:44
10.01.2008;4,10 km/h (1 Bft);10,90 km/h (2 Bft);89.48;96,00;80,00 %;1012.50;1015,10;1008,90 hPa;08:14:35
11.01.2008;6,87 km/h (2 Bft);10,80 km/h (2 Bft);74.30;84,00;60,00 %;1003.35;1008,90;997,80 hPa;08:16:31
12.01.2008;5,88 km/h (2 Bft);12,10 km/h (2 Bft);77.52;89,00;64,00 %;1002.93;1013,50;996,10 hPa;08:18:32
13.01.2008;1,82 km/h (1 Bft);6,80 km/h (2 Bft);87.55;95,00;65,00 %;1013.52;1015,60;1009,20 hPa;08:20:37
14.01.2008;4,01 km/h (1 Bft);9,00 km/h (2 Bft);85.51;95,00;74,00 %;1006.77;1009,20;1005,40 hPa;08:22:47
15.01.2008;8,76 km/h (2 Bft);16,10 km/h (3 Bft);75.98;84,00;61,00 %;1001.00;1005,80;992,20 hPa;08:25:02
16.01.2008;7,01 km/h (2 Bft);13,80 km/h (3 Bft);81.59;89,00;66,00 %;994.63;1001,40;990,60 hPa;08:27:22
17.01.2008;4,96 km/h (1 Bft);9,70 km/h (2 Bft);83.68;89,00;75,00 %;1005.21;1008,80;1001,30 hPa;08:29:45
18.01.2008;7,00 km/h (2 Bft);12,10 km/h (2 Bft);87.42;93,00;77,00 %;1008.98;1013,80;1001,90 hPa;08:32:13
19.01.2008;9,03 km/h (2 Bft);16,10 km/h (3 Bft);88.71;93,00;79,00 %;1015.22;1020,20;1011,40 hPa;08:34:45
20.01.2008;7,48 km/h (2 Bft);10,90 km/h (2 Bft);87.15;91,00;83,00 %;1017.31;1020,00;1015,30 hPa;08:37:21
21.01.2008;9,09 km/h (2 Bft);15,40 km/h (3 Bft);82.68;89,00;71,00 %;1010.68;1015,30;1001,40 hPa;08:40:00
22.01.2008;4,43 km/h (1 Bft);19,60 km/h (3 Bft);85.01;92,00;72,00 %;1012.37;1026,70;998,80 hPa;08:42:44
23.01.2008;3,10 km/h (1 Bft);7,10 km/h (2 Bft);81.81;93,00;67,00 %;1026.84;1028,70;1025,40 hPa;08:45:30
24.01.2008;3,24 km/h (1 Bft);6,10 km/h (2 Bft);80.21;90,00;76,00 %;1024.25;1028,80;1023,10 hPa;08:48:21
25.01.2008;3,25 km/h (1 Bft);9,30 km/h (2 Bft);74.93;95,00;52,00 %;1032.44;1034,90;1028,80 hPa;08:51:14
26.01.2008;5,54 km/h (1 Bft);10,10 km/h (2 Bft);77.19;83,00;69,00 %;1028.34;1031,90;1024,80 hPa;08:54:11
27.01.2008;7,66 km/h (2 Bft);17,40 km/h (3 Bft);86.01;91,00;81,00 %;1023.67;1028,90;1020,30 hPa;08:57:11
28.01.2008;0,97 km/h (0 Bft);6,30 km/h (2 Bft);89.47;92,00;83,00 %;1029.20;1030,60;1027,60 hPa;09:00:13
29.01.2008;0,51 km/h (0 Bft);3,70 km/h (1 Bft);83.12;91,00;69,00 %;1024.79;1027,60;1020,20 hPa;09:03:19
30.01.2008;2,38 km/h (1 Bft);6,60 km/h (2 Bft);90.60;95,00;82,00 %;1019.41;1022,40;1017,00 hPa;09:06:27
31.01.2008;6,83 km/h (1 Bft);14,60 km/h (3 Bft);86.35;96,00;75,00 %;1014.43;1022,20;1001,30 hPa;09:09:38
01.02.2008;8,77 km/h (2 Bft);17,40 km/h (3 Bft);86.85;91,00;72,00 %;995.91;1001,30;994,10 hPa;09:12:51
02.02.2008;7,49 km/h (2 Bft);18,20 km/h (3 Bft);85.85;92,00;75,00 %;1007.47;1017,60;996,80 hPa;09:16:07
03.02.2008;2,83 km/h (1 Bft);8,70 km/h (2 Bft);75.80;92,00;47,00 %;1012.72;1017,60;1005,20 hPa;09:19:25
04.02.2008;2,18 km/h (1 Bft);9,70 km/h (2 Bft);82.43;91,00;73,00 %;1003.77;1011,00;999,50 hPa;09:22:45
05.02.2008;6,72 km/h (2 Bft);14,20 km/h (3 Bft);85.57;91,00;71,00 %;1011.03;1012,70;1007,40 hPa;09:26:07
06.02.2008;7,72 km/h (2 Bft);18,20 km/h (3 Bft);86.40;93,00;80,00 %;1013.72;1027,60;1005,20 hPa;09:29:31
07.02.2008;2,34 km/h (1 Bft);12,90 km/h (3 Bft);83.69;95,00;59,00 %;1032.32;1034,80;1027,60 hPa;09:32:57
08.02.2008;0,73 km/h (0 Bft);4,70 km/h (1 Bft);78.97;94,00;49,00 %;1034.40;1036,10;1033,40 hPa;09:36:25
09.02.2008;0,26 km/h (0 Bft);3,20 km/h (1 Bft);81.04;95,00;42,00 %;1032.53;1033,60;1031,60 hPa;09:39:54
10.02.2008;0,62 km/h (0 Bft);6,00 km/h (2 Bft);84.77;94,00;63,00 %;1032.00;1033,00;1031,10 hPa;09:43:25
11.02.2008;0,78 km/h (0 Bft);6,00 km/h (2 Bft);85.86;95,00;64,00 %;1032.15;1033,50;1031,40 hPa;09:46:58
12.02.2008;2,04 km/h (1 Bft);10,60 km/h (2 Bft);87.77;95,00;73,00 %;1031.35;1032,60;1030,40 hPa;09:50:32
13.02.2008;0,29 km/h (0 Bft);2,10 km/h (1 Bft);93.02;95,00;89,00 %;1031.73;1033,20;1030,70 hPa;09:54:08
14.02.2008;2,75 km/h (1 Bft);9,20 km/h (2 Bft);93.56;96,00;88,00 %;1031.85;1033,10;1030,80 hPa;09:57:45
15.02.2008;3,61 km/h (1 Bft);11,70 km/h (2 Bft);77.03;94,00;54,00 %;1034.44;1038,40;1031,10 hPa;10:01:23
16.02.2008;1,12 km/h (0 Bft);5,80 km/h (2 Bft);71.71;92,00;39,00 %;1039.50;1041,20;1037,90 hPa;10:05:02
17.02.2008;1,37 km/h (0 Bft);7,70 km/h (2 Bft);70.57;91,00;37,00 %;1036.12;1041,20;1031,90 hPa;10:08:42
18.02.2008;0,37 km/h (0 Bft);3,20 km/h (1 Bft);71.46;91,00;34,00 %;1028.81;1032,10;1026,70 hPa;10:12:24
19.02.2008;0,68 km/h (0 Bft);3,40 km/h (1 Bft);87.05;94,00;83,00 %;1023.24;1026,80;1019,10 hPa;10:16:06
20.02.2008;0,52 km/h (0 Bft);2,60 km/h (1 Bft);91.60;94,00;74,00 %;1017.30;1019,10;1016,10 hPa;10:19:49
21.02.2008;3,75 km/h (1 Bft);9,20 km/h (2 Bft);87.92;95,00;82,00 %;1019.06;1020,80;1017,10 hPa;10:23:33
22.02.2008;6,87 km/h (2 Bft);11,40 km/h (2 Bft);82.50;89,00;74,00 %;1018.94;1021,30;1017,40 hPa;10:27:18
23.02.2008;4,09 km/h (1 Bft);10,60 km/h (2 Bft);74.38;89,00;58,00 %;1022.60;1025,40;1020,60 hPa;10:31:04
24.02.2008;2,34 km/h (1 Bft);8,20 km/h (2 Bft);83.28;95,00;62,00 %;1017.01;1021,90;1013,90 hPa;10:34:51
25.02.2008;2,02 km/h (1 Bft);10,80 km/h (2 Bft);79.86;96,00;50,00 %;1016.07;1020,00;1011,80 hPa;10:38:38
26.02.2008;6,96 km/h (2 Bft);13,00 km/h (3 Bft);83.00;90,00;66,00 %;1007.62;1014,70;1004,10 hPa;10:42:26
27.02.2008;7,77 km/h (2 Bft);19,20 km/h (3 Bft);76.15;90,00;58,00 %;1011.59;1017,70;1005,80 hPa;10:46:14
28.02.2008;1,47 km/h (0 Bft);9,00 km/h (2 Bft);78.29;94,00;53,00 %;1017.60;1019,60;1015,20 hPa;10:50:03
29.02.2008;4,08 km/h (1 Bft);15,00 km/h (3 Bft);85.57;93,00;71,00 %;1008.86;1015,20;995,80 hPa;10:53:52
01.03.2008;16,51 km/h (3 Bft);33,80 km/h (5 Bft);80.14;91,00;63,00 %;994.28;1003,30;981,80 hPa;10:57:42
02.03.2008;11,25 km/h (2 Bft);27,40 km/h (4 Bft);75.81;91,00;64,00 %;1000.56;1004,70;996,40 hPa;11:01:32
03.03.2008;5,63 km/h (1 Bft);17,20 km/h (3 Bft);74.08;86,00;54,00 %;1004.40;1008,50;1002,20 hPa;11:05:23
04.03.2008;1,71 km/h (0 Bft);6,10 km/h (2 Bft);71.35;89,00;47,00 %;1010.73;1016,60;1007,00 hPa;11:09:14
05.03.2008;1,90 km/h (1 Bft);6,80 km/h (2 Bft);64.89;83,00;39,00 %;1022.88;1026,10;1016,60 hPa;11:13:06
06.03.2008;3,22 km/h (1 Bft);8,40 km/h (2 Bft);72.27;83,00;62,00 %;1020.01;1024,20;1016,60 hPa;11:16:57
07.03.2008;2,75 km/h (1 Bft);10,00 km/h (2 Bft);76.49;87,00;67,00 %;1010.59;1016,60;1009,20 hPa;11:20:49
08.03.2008;2,45 km/h (1 Bft);12,20 km/h (2 Bft);77.33;92,00;46,00 %;1006.84;1009,20;1004,20 hPa;11:24:42
09.03.2008;5,04 km/h (1 Bft);11,10 km/h (2 Bft);75.77;91,00;60,00 %;1000.09;1004,40;997,10 hPa;11:28:34
10.03.2008;9,03 km/h (2 Bft);17,90 km/h (3 Bft);68.04;85,00;43,00 %;990.31;997,10;984,40 hPa;11:32:27
11.03.2008;10,04 km/h (2 Bft);15,00 km/h (3 Bft);77.71;91,00;62,00 %;989.87;991,90;984,40 hPa;11:36:19
12.03.2008;19,36 km/h (3 Bft);36,20 km/h (5 Bft);72.31;91,00;43,00 %;992.08;1004,60;985,20 hPa;11:40:12
13.03.2008;11,42 km/h (2 Bft);23,00 km/h (4 Bft);73.24;88,00;48,00 %;1006.96;1009,70;1003,40 hPa;11:44:05
14.03.2008;3,99 km/h (1 Bft);16,90 km/h (3 Bft);79.26;93,00;55,00 %;1006.52;1011,80;1001,50 hPa;11:47:59
15.03.2008;0,95 km/h (0 Bft);4,70 km/h (1 Bft);80.47;95,00;53,00 %;1007.55;1011,70;999,70 hPa;11:51:52
16.03.2008;3,20 km/h (1 Bft);10,60 km/h (2 Bft);86.47;96,00;68,00 %;996.85;999,70;995,80 hPa;11:55:45
17.03.2008;4,09 km/h (1 Bft);12,40 km/h (3 Bft);78.01;93,00;52,00 %;1004.26;1007,80;996,60 hPa;11:59:39
18.03.2008;3,33 km/h (1 Bft);16,60 km/h (3 Bft);80.51;91,00;50,00 %;1007.52;1009,20;1005,70 hPa;12:03:32
19.03.2008;2,38 km/h (1 Bft);10,10 km/h (2 Bft);82.35;94,00;55,00 %;1008.97;1012,10;1006,70 hPa;12:07:25
20.03.2008;6,73 km/h (2 Bft);21,40 km/h (4 Bft);85.14;94,00;69,00 %;1006.36;1012,00;991,20 hPa;12:11:19
21.03.2008;7,73 km/h (2 Bft);18,00 km/h (3 Bft);87.43;93,00;71,00 %;977.28;991,20;973,10 hPa;12:15:12
22.03.2008;3,77 km/h (1 Bft);10,50 km/h (2 Bft);83.97;93,00;57,00 %;983.56;991,40;976,10 hPa;12:19:05
23.03.2008;2,49 km/h (1 Bft);6,80 km/h (2 Bft);79.02;91,00;61,00 %;993.52;994,90;991,30 hPa;12:22:58
24.03.2008;2,84 km/h (1 Bft);11,70 km/h (2 Bft);81.76;91,00;55,00 %;990.41;994,00;988,70 hPa;12:26:51
25.03.2008;7,01 km/h (2 Bft);23,80 km/h (4 Bft);79.91;93,00;56,00 %;995.06;999,50;989,10 hPa;12:30:44
26.03.2008;3,04 km/h (1 Bft);11,10 km/h (2 Bft);84.99;92,00;78,00 %;997.40;998,60;996,40 hPa;12:34:37
27.03.2008;1,12 km/h (0 Bft);5,30 km/h (1 Bft);86.02;94,00;68,00 %;997.24;1001,20;994,70 hPa;12:38:29
28.03.2008;5,18 km/h (1 Bft);14,80 km/h (3 Bft);71.48;91,00;50,00 %;1004.60;1008,10;1001,10 hPa;12:42:21
29.03.2008;7,33 km/h (2 Bft);14,80 km/h (3 Bft);67.31;88,00;46,00 %;1010.68;1014,60;1003,10 hPa;12:46:14
30.03.2008;5,50 km/h (1 Bft);12,90 km/h (3 Bft);47.70;77,00;23,00 %;1006.39;1012,10;1002,80 hPa;12:50:05
31.03.2008;2,59 km/h (1 Bft);9,20 km/h (2 Bft);66.29;86,00;51,00 %;1011.73;1019,20;1004,20 hPa;12:53:57
01.04.2008;4,73 km/h (1 Bft);20,30 km/h (4 Bft);69.23;94,00;36,00 %;1017.72;1021,80;1013,90 hPa;12:57:48
02.04.2008;4,87 km/h (1 Bft);14,30 km/h (3 Bft);84.75;93,00;66,00 %;1014.81;1016,50;1014,00 hPa;13:01:39
03.04.2008;3,61 km/h (1 Bft);8,00 km/h (2 Bft);82.00;90,00;68,00 %;1018.16;1024,20;1014,20 hPa;13:05:30
04.04.2008;1,67 km/h (0 Bft);9,70 km/h (2 Bft);82.82;94,00;58,00 %;1022.43;1024,80;1017,90 hPa;13:09:20
05.04.2008;2,54 km/h (1 Bft);8,70 km/h (2 Bft);91.08;94,00;85,00 %;1006.88;1017,90;1000,30 hPa;13:13:10
06.04.2008;1,26 km/h (0 Bft);8,90 km/h (2 Bft);89.35;95,00;73,00 %;997.33;1001,00;994,60 hPa;13:17:00
07.04.2008;2,81 km/h (1 Bft);10,50 km/h (2 Bft);89.75;95,00;81,00 %;996.87;1003,20;991,90 hPa;13:20:49
08.04.2008;1,38 km/h (0 Bft);5,80 km/h (2 Bft);75.67;95,00;43,00 %;1001.75;1003,30;999,20 hPa;13:24:37
09.04.2008;2,55 km/h (1 Bft);8,50 km/h (2 Bft);81.95;92,00;64,00 %;995.87;999,20;993,30 hPa;13:28:26
10.04.2008;2,58 km/h (1 Bft);6,40 km/h (2 Bft);86.69;93,00;76,00 %;995.20;996,80;993,10 hPa;13:32:13
11.04.2008;0,53 km/h (0 Bft);3,10 km/h (1 Bft);90.78;94,00;84,00 %;995.59;1001,00;993,20 hPa;13:36:00
12.04.2008;3,21 km/h (1 Bft);10,30 km/h (2 Bft);74.78;96,00;49,00 %;1004.88;1007,70;1001,00 hPa;13:39:47
13.04.2008;2,68 km/h (1 Bft);20,60 km/h (4 Bft);82.04;94,00;50,00 %;1008.02;1009,10;1007,20 hPa;13:43:32
14.04.2008;3,67 km/h (1 Bft);13,40 km/h (3 Bft);84.14;95,00;61,00 %;1007.43;1011,90;1004,90 hPa;13:47:17
15.04.2008;1,61 km/h (1 Bft);7,70 km/h (2 Bft);75.53;90,00;51,00 %;1014.78;1018,50;1011,50 hPa;13:51:02
16.04.2008;2,36 km/h (1 Bft);9,00 km/h (2 Bft);70.63;92,00;39,00 %;1015.80;1018,30;1012,40 hPa;13:54:45
17.04.2008;3,18 km/h (1 Bft);9,80 km/h (2 Bft);65.80;91,00;38,00 %;1005.65;1012,40;1001,00 hPa;13:58:28
18.04.2008;2,61 km/h (1 Bft);14,20 km/h (3 Bft);79.47;93,00;47,00 %;1000.01;1001,00;999,20 hPa;14:02:10
19.04.2008;3,57 km/h (1 Bft);9,50 km/h (2 Bft);80.43;90,00;73,00 %;999.88;1002,30;994,50 hPa;14:05:51
20.04.2008;2,68 km/h (1 Bft);11,60 km/h (2 Bft);79.81;94,00;61,00 %;1002.94;1004,20;1001,60 hPa;14:09:31
21.04.2008;6,65 km/h (1 Bft);18,00 km/h (3 Bft);70.59;95,00;51,00 %;1000.30;1003,10;999,00 hPa;14:13:11
22.04.2008;4,73 km/h (1 Bft);14,30 km/h (3 Bft);72.06;86,00;59,00 %;1003.75;1009,80;999,10 hPa;14:16:49
23.04.2008;1,45 km/h (0 Bft);7,20 km/h (2 Bft);65.63;93,00;30,00 %;1014.56;1017,90;1009,80 hPa;14:20:26
24.04.2008;1,98 km/h (1 Bft);11,30 km/h (2 Bft);74.99;91,00;44,00 %;1018.52;1020,80;1017,10 hPa;14:24:02
25.04.2008;3,85 km/h (1 Bft);15,40 km/h (3 Bft);73.59;92,00;52,00 %;1022.47;1025,80;1017,90 hPa;14:27:36
26.04.2008;1,22 km/h (0 Bft);9,20 km/h (2 Bft);68.07;92,00;41,00 %;1024.62;1026,20;1022,90 hPa;14:31:10
27.04.2008;1,62 km/h (0 Bft);6,60 km/h (2 Bft);62.33;92,00;28,00 %;1018.10;1022,90;1010,80 hPa;14:34:42
28.04.2008;3,41 km/h (1 Bft);22,00 km/h (4 Bft);73.17;91,00;42,00 %;1004.68;1010,80;1001,60 hPa;14:38:12
29.04.2008;3,77 km/h (1 Bft);13,40 km/h (3 Bft);68.73;90,00;36,00 %;1000.85;1002,20;999,80 hPa;14:41:42
30.04.2008;3,85 km/h (1 Bft);18,20 km/h (3 Bft);65.12;92,00;32,00 %;999.10;1003,00;996,90 hPa;14:45:09
01.05.2008;3,34 km/h (1 Bft);17,90 km/h (3 Bft);69.98;92,00;40,00 %;1008.22;1013,50;1002,90 hPa;14:48:35
02.05.2008;2,92 km/h (1 Bft);11,90 km/h (2 Bft);73.14;91,00;42,00 %;1017.68;1022,00;1013,50 hPa;14:52:00
03.05.2008;1,81 km/h (1 Bft);7,40 km/h (2 Bft);70.12;93,00;40,00 %;1023.00;1024,90;1021,80 hPa;14:55:23
04.05.2008;3,39 km/h (1 Bft);11,70 km/h (2 Bft);57.46;91,00;28,00 %;1021.66;1023,30;1020,10 hPa;14:58:43
05.05.2008;2,88 km/h (1 Bft);11,70 km/h (2 Bft);65.17;88,00;43,00 %;1023.28;1025,40;1021,90 hPa;15:02:02
06.05.2008;3,38 km/h (1 Bft);11,90 km/h (2 Bft);65.92;92,00;39,00 %;1022.48;1024,50;1020,50 hPa;15:05:19
07.05.2008;1,70 km/h (1 Bft);9,30 km/h (2 Bft);61.27;91,00;32,00 %;1019.46;1021,40;1017,10 hPa;15:08:34
08.05.2008;1,42 km/h (0 Bft);6,00 km/h (2 Bft);56.94;90,00;24,00 %;1016.56;1018,80;1014,70 hPa;15:11:47
09.05.2008;3,25 km/h (1 Bft);11,60 km/h (2 Bft);53.90;89,00;27,00 %;1014.83;1016,50;1013,80 hPa;15:14:57
10.05.2008;4,96 km/h (1 Bft);14,00 km/h (3 Bft);50.62;86,00;28,00 %;1016.42;1018,20;1015,40 hPa;15:18:05
11.05.2008;6,80 km/h (1 Bft);16,30 km/h (3 Bft);50.03;86,00;25,00 %;1016.92;1019,00;1015,30 hPa;15:21:11
12.05.2008;3,16 km/h (1 Bft);11,90 km/h (2 Bft);51.12;85,00;26,00 %;1015.44;1017,70;1013,90 hPa;15:24:14
13.05.2008;3,66 km/h (1 Bft);14,20 km/h (3 Bft);51.76;71,00;24,00 %;1013.26;1014,70;1011,50 hPa;15:27:15
14.05.2008;1,94 km/h (1 Bft);7,10 km/h (2 Bft);58.68;88,00;31,00 %;1011.41;1013,40;1008,80 hPa;15:30:12
15.05.2008;1,52 km/h (1 Bft);11,90 km/h (2 Bft);73.26;91,00;39,00 %;1006.70;1009,00;1005,10 hPa;15:33:07
16.05.2008;2,65 km/h (1 Bft);11,70 km/h (2 Bft);77.91;94,00;48,00 %;1004.30;1005,80;1003,20 hPa;15:35:59
17.05.2008;3,70 km/h (1 Bft);14,30 km/h (3 Bft);75.72;94,00;51,00 %;1002.19;1004,40;1001,30 hPa;15:38:48